Location: Northcutt
(34.7304°N, 84.4305°W)
Time: 17:45:05
(UTC+00:00)

SR - Pass Details

Date: 10 October 2022
Orbit: 577 x 874 km, 66.7° (Epoch: 05 December)

Event Time Altitude Azimuth Distance (km) Brightness Sun altitude
Rises 09:29:10 0° 338° (NNW) 3,264 - -27.4°
Reaches altitude 10° 09:31:45 10° 344° (NNW) 2,284 - -26.9°
Exits shadow 09:32:33 14° 347° (NNW) 1,992 ? -26.8°
Maximum altitude 09:36:48 50° 59° (ENE) 903 ? -25.9°
Drops below altitude 10° 09:41:23 10° 135° (SE) 2,081 ? -25.0°
Sets 09:43:38 0° 141° (SE) 2,945 ? -24.5°
